Wind_Speed
11 13 15 16 18 19 21 23 25 26 27 29 30 31 31 31 31 32 32 32 33 33 32 31 31 31 30 30 30 31 31 30 30 29 29 28 27 26 25 24 25 25 25
3 5 6 8 11 13 15 16 18 20 22 24 26 26 27 28 29 29 29 30 29 28 28 28 29 28 28 29 29 29 29 28 28 27 25 25 24 24 23 24 24 25 25
7 5 3 3 4 6 9 11 12 14 16 18 20 21 22 23 24 24 25 25 25 25 25 25 25 25 25 24 24 24 24 24 23 23 22 22 21 21 22 23 23 24 24
10 8 7 6 5 5 6 6 7 9 10 12 14 16 16 17 18 20 20 21 22 22 22 21 21 20 20 20 20 20 20 19 18 18 18 18 18 19 20 20 21 21 22
14 13 11 10 9 8 7 7 7 7 7 8 9 10 11 13 15 16 17 18 18 18 18 18 17 17 18 18 17 17 16 15 14 14 15 15 16 17 17 18 19 20 21
17 16 15 13 12 11 10 10 9 8 8 9 9 9 10 11 12 13 14 15 15 15 15 14 15 15 15 15 14 14 13 13 13 14 14 15 15 16 17 18 18 19 20
19 18 18 17 15 14 13 13 12 11 11 10 10 10 11 12 12 12 13 14 15 16 17 16 16 15 14 14 13 13 12 12 12 12 13 13 14 14 15 16 17 18 18
20 20 19 18 18 17 16 15 14 13 13 12 11 11 10 10 11 12 13 14 15 16 16 17 16 16 16 15 14 13 13 13 13 13 13 13 13 14 14 15 15 16 16
21 21 20 20 20 20 19 19 17 16 15 14 13 12 11 10 10 10 12 13 15 16 15 15 16 15 15 14 14 14 13 13 13 13 13 13 13 13 13 13 13 13 14
22 22 21 21 21 22 22 21 20 20 18 17 15 13 12 10 9 9 9 11 12 13 14 14 15 15 15 14 14 14 13 13 13 13 12 12 12 12 11 11 11 10 10
21 22 22 23 23 23 23 23 23 22 21 19 17 15 13 10 8 7 7 7 8 10 12 12 12 13 13 13 13 13 12 12 12 12 11 10 9 9 8 8 7 7 7
21 21 22 23 24 24 24 25 25 24 23 22 20 18 15 12 9 6 3 2 3 6 8 9 10 10 11 11 11 11 11 11 11 11 9 8 7 6 5 5 4 4 5
20 21 22 23 24 24 25 26 26 26 25 24 23 21 18 15 13 10 7 5 4 5 6 8 8 9 10 10 10 10 10 9 9 8 8 7 6 4 3 2 2 2 2
19 21 22 22 23 24 25 26 26 27 26 26 25 23 21 19 17 15 12 10 10 9 9 9 10 10 10 10 9 9 8 8 7 7 6 5 4 3 3 2 1 1 2
19 20 21 22 23 23 24 25 26 27 27 26 26 25 24 22 20 18 17 15 14 13 12 12 11 11 10 10 10 9 9 8 8 7 7 6 6 5 5 4 3 3 4
19 20 21 22 22 23 24 25 25 25 26 26 26 26 25 24 23 21 20 18 17 16 15 15 14 14 13 12 12 11 10 10 9 9 8 8 7 7 6 6 5 4 4
18 19 20 21 22 22 23 24 24 25 25 25 25 25 25 25 25 23 22 21 20 19 18 17 17 16 15 14 13 13 12 12 11 10 10 9 9 9 7 6 5 4 4
17 18 19 20 20 21 22 22 23 23 23 23 23 23 23 23 23 23 23 22 21 21 20 19 18 17 17 16 15 14 14 13 13 12 11 10 9 8 7 6 5 5 5
15 16 17 18 19 20 20 21 21 21 22 22 22 22 22 22 22 22 22 21 21 20 20 19 19 18 17 16 16 15 14 13 13 12 12 10 9 8 7 6 6 6 6
13 14 15 17 17 18 19 19 20 20 20 20 20 20 20 20 20 20 21 20 20 19 19 18 18 17 17 16 16 15 15 14 13 12 11 10 10 9 8 8 7 7 8
11 12 13 14 15 16 17 17 18 18 18 18 18 18 19 18 19 19 18 18 18 18 17 17 16 16 16 15 15 14 14 14 13 12 11 11 10 9 9 9 8 8 8
10 10 11 12 12 14 15 15 16 16 16 16 16 16 17 17 17 17 17 17 17 17 16 16 15 15 15 14 14 14 13 12 12 12 11 10 10 9 8 8 8 8 9
9 9 10 10 10 11 12 13 13 14 14 14 14 14 14 14 15 15 15 16 16 16 16 16 16 16 15 15 14 14 14 13 12 12 11 10 9 8 8 8 8 9 10
9 9 9 9 9 9 9 9 10 11 11 11 11 11 11 12 12 12 12 13 14 14 15 15 15 15 15 14 14 13 13 12 11 10 9 9 8 8 9 9 10 10 11
10 10 10 10 10 9 9 8 8 8 8 8 8 8 8 8 8 8 9 9 10 10 11 11 11 11 11 11 11 10 10 9 8 8 8 8 8 9 9 10 11 12 12
12 12 12 11 11 10 10 9 8 8 7 7 7 6 6 5 5 4 4 4 4 5 5 5 6 6 6 6 6 6 6 6 7 7 8 8 9 10 10 11 11 12 13
Wind_Direction
266 264 263 261 261 262 261 259 259 259 261 262 263 263 263 263 262 261 261 259 258 255 254 256 255 256 258 256 256 256 255 257 257 257 257 258 257 257 259 261 264 267 271
317 293 276 269 266 266 265 264 263 263 264 264 264 263 261 260 259 257 256 254 253 252 253 256 255 256 256 254 257 257 256 256 255 255 255 255 256 255 257 260 263 267 271
42 28 6 331 299 283 279 274 272 270 268 266 263 261 260 258 256 255 254 252 252 252 253 253 253 254 252 252 253 254 253 253 252 252 253 254 254 257 259 262 265 269 273
52 45 35 24 11 355 337 313 295 286 280 277 270 263 260 257 256 252 249 249 249 249 248 247 247 247 248 246 246 247 248 248 248 248 249 252 255 258 261 264 266 270 273
50 49 44 36 29 18 6 356 342 328 315 305 291 277 268 263 261 258 252 246 244 242 241 241 241 243 243 240 240 242 242 243 245 246 249 253 257 259 261 264 268 270 273
49 48 45 42 37 32 25 15 3 350 335 324 313 300 289 278 270 262 253 250 243 239 237 238 239 239 239 238 235 235 236 240 243 245 249 253 256 259 263 265 269 271 273
48 47 46 43 40 34 27 18 11 3 352 340 328 311 297 284 273 263 254 250 247 244 242 240 239 237 236 234 231 231 233 235 239 244 248 252 256 260 263 266 269 271 273
47 45 42 40 37 32 26 20 12 4 357 349 339 328 314 297 280 269 262 256 251 246 244 241 239 237 236 235 235 234 235 238 240 243 247 253 257 260 263 266 270 273 276
44 42 41 39 36 33 28 22 17 11 4 356 346 337 326 313 297 283 268 258 252 248 244 239 236 232 229 229 230 233 236 238 239 242 247 251 255 260 264 269 273 276 280
43 42 41 38 36 32 28 24 20 15 11 5 358 349 340 327 311 295 278 264 254 247 243 238 233 229 228 225 227 229 231 235 238 240 243 247 251 257 263 270 275 280 286
42 41 40 37 33 29 27 25 22 19 16 12 7 1 356 348 334 314 292 271 257 246 237 232 228 221 218 219 220 221 225 227 230 235 239 242 248 254 261 269 275 281 290
39 38 36 34 32 30 28 26 25 24 22 20 19 17 16 14 13 7 348 292 237 219 214 213 212 212 208 206 207 210 214 218 223 227 230 233 241 249 256 262 269 285 301
35 34 32 32 31 30 29 28 28 28 28 28 29 31 33 36 40 44 52 68 104 143 160 170 174 178 180 183 188 194 199 204 209 212 214 217 221 226 231 232 255 299 326
32 31 30 30 30 30 30 30 31 31 32 34 36 38 42 46 51 56 64 75 89 106 123 136 145 150 152 157 164 170 174 176 175 177 178 181 182 178 172 163 135 68 40
31 30 29 29 29 30 30 31 32 34 36 38 40 44 46 50 55 60 67 76 84 93 104 114 122 130 133 136 141 147 149 149 150 150 148 147 144 138 133 123 105 80 55
30 30 30 29 29 30 31 32 33 36 39 41 44 47 50 53 57 63 69 75 81 88 96 103 108 114 119 122 125 127 129 132 133 134 134 132 130 127 121 111 98 79 53
27 27 28 28 29 30 31 32 34 36 39 42 46 49 51 54 58 63 69 74 80 85 90 96 101 104 106 111 116 118 120 121 123 124 123 122 120 118 113 103 88 70 48
25 26 26 28 29 29 31 32 34 36 39 43 46 50 53 56 59 63 68 73 78 82 86 91 95 98 101 104 108 111 113 114 115 115 115 115 114 110 103 93 81 69 56
21 23 25 26 28 29 30 32 35 37 40 43 46 50 53 57 61 64 68 72 77 81 85 88 91 94 96 99 102 105 108 110 110 110 108 106 104 100 94 87 78 69 59
15 18 21 24 26 28 30 32 34 36 40 43 46 50 53 58 62 65 69 72 76 79 83 86 89 92 94 97 99 100 102 104 106 105 102 99 96 93 88 82 74 65 55
6 10 14 19 23 26 28 31 33 36 38 43 46 49 53 57 61 65 68 72 75 77 81 84 87 90 92 93 95 97 99 100 101 100 97 94 91 86 80 74 66 54 43
353 358 4 9 15 19 24 27 31 34 37 41 45 49 53 57 61 65 68 70 73 76 79 83 85 88 90 91 92 93 95 96 95 93 91 88 83 77 70 60 49 37 28
339 343 348 355 2 8 13 19 24 29 33 37 42 46 50 54 58 63 67 69 71 74 77 80 83 86 87 88 89 89 89 89 88 85 81 76 70 61 50 39 29 21 14
326 330 334 338 343 349 356 4 11 18 23 28 34 40 45 51 55 60 65 68 70 73 76 78 79 81 82 83 83 82 81 80 77 72 65 57 48 40 31 23 16 9 4
315 316 318 321 326 329 334 340 348 357 6 12 17 23 31 39 47 54 59 64 66 68 69 71 73 75 76 75 74 71 68 64 57 49 41 32 24 17 12 8 5 2 360
301 305 306 306 307 310 313 317 320 324 331 341 349 356 1 7 15 25 35 44 50 53 54 56 59 61 60 57 52 46 39 32 24 18 12 8 4 1 358 357 355 354 353
Height
5772 5773 5775 5777 5779 5780 5781 5783 5785 5786 5787 5789 5790 5790 5792 5792 5793 5794 5795 5797 5798 5800 5801 5803 5805 5807 5809 5811 5812 5813 5815 5817 5819 5821 5822 5824 5825 5827 5828 5829 5830 5830 5831
5771 5771 5772 5773 5774 5776 5776 5777 5778 5779 5780 5780 5781 5782 5783 5783 5784 5786 5787 5789 5790 5792 5793 5795 5797 5799 5801 5803 5804 5806 5807 5809 5811 5813 5815 5817 5819 5820 5821 5823 5824 5824 5825
5771 5771 5772 5772 5772 5773 5773 5773 5774 5774 5774 5774 5775 5775 5776 5776 5777 5778 5779 5781 5782 5784 5786 5788 5790 5792 5793 5795 5797 5799 5801 5802 5805 5807 5809 5811 5813 5814 5816 5817 5818 5818 5819
5773 5773 5773 5772 5772 5771 5771 5771 5770 5770 5770 5769 5769 5769 5769 5770 5771 5772 5773 5775 5776 5778 5779 5781 5783 5785 5787 5789 5791 5793 5795 5797 5799 5801 5804 5806 5807 5809 5810 5811 5812 5813 5813
5776 5775 5774 5773 5772 5772 5771 5770 5769 5768 5767 5766 5766 5765 5765 5765 5765 5766 5767 5769 5771 5772 5774 5776 5778 5780 5782 5784 5786 5788 5791 5793 5795 5797 5799 5801 5803 5804 5805 5806 5807 5807 5807
5780 5778 5776 5775 5774 5772 5771 5769 5768 5766 5765 5764 5763 5762 5761 5761 5761 5762 5763 5764 5765 5767 5768 5770 5772 5775 5777 5779 5782 5784 5786 5789 5791 5793 5795 5797 5798 5799 5800 5801 5801 5802 5802
5783 5781 5779 5777 5776 5774 5772 5769 5767 5765 5763 5761 5760 5758 5758 5757 5757 5757 5757 5759 5760 5762 5763 5765 5767 5770 5772 5775 5777 5780 5783 5785 5787 5789 5791 5793 5794 5795 5795 5796 5796 5796 5796
5787 5785 5782 5780 5778 5775 5773 5770 5767 5764 5762 5759 5757 5755 5754 5753 5752 5752 5752 5753 5755 5756 5758 5760 5763 5765 5768 5771 5773 5776 5778 5781 5783 5785 5787 5788 5789 5790 5791 5792 5791 5791 5791
5791 5788 5786 5783 5780 5777 5774 5771 5767 5764 5761 5757 5755 5752 5750 5748 5747 5747 5747 5748 5749 5750 5752 5755 5758 5760 5763 5766 5769 5772 5774 5777 5779 5781 5783 5784 5785 5786 5787 5787 5787 5787 5787
5795 5792 5789 5786 5783 5780 5776 5772 5768 5764 5760 5756 5752 5749 5747 5745 5743 5742 5742 5742 5743 5745 5746 5749 5752 5755 5758 5761 5765 5767 5770 5773 5775 5777 5779 5780 5781 5782 5783 5783 5784 5784 5783
5799 5796 5793 5790 5786 5782 5778 5774 5769 5764 5760 5755 5751 5747 5744 5741 5740 5738 5738 5738 5738 5739 5741 5744 5747 5750 5754 5757 5760 5763 5766 5769 5771 5773 5775 5777 5778 5779 5780 5780 5781 5781 5781
5803 5800 5797 5793 5789 5785 5781 5776 5771 5766 5760 5755 5750 5746 5742 5740 5737 5736 5735 5734 5735 5736 5738 5741 5744 5747 5750 5754 5757 5760 5763 5765 5768 5770 5772 5774 5775 5776 5777 5778 5778 5779 5778
5807 5804 5800 5797 5793 5788 5784 5779 5774 5768 5763 5757 5752 5747 5743 5740 5738 5736 5735 5734 5734 5735 5737 5740 5743 5746 5749 5752 5755 5758 5760 5763 5765 5768 5770 5772 5773 5774 5775 5776 5777 5777 5777
5810 5807 5803 5800 5796 5791 5787 5782 5777 5771 5766 5761 5756 5751 5747 5744 5741 5739 5737 5737 5737 5737 5739 5741 5744 5746 5749 5752 5754 5757 5759 5762 5764 5767 5768 5770 5772 5773 5774 5775 5776 5776 5776
5813 5810 5807 5803 5799 5795 5790 5786 5781 5775 5770 5765 5761 5756 5753 5749 5746 5744 5742 5741 5741 5741 5742 5744 5746 5748 5751 5753 5755 5758 5760 5762 5765 5766 5768 5770 5771 5773 5774 5775 5775 5776 5776
5816 5813 5810 5806 5802 5798 5794 5789 5785 5780 5776 5771 5767 5763 5759 5756 5752 5750 5748 5747 5746 5746 5747 5748 5750 5751 5753 5755 5757 5759 5762 5764 5765 5767 5769 5770 5772 5773 5774 5775 5776 5776 5776
5819 5816 5813 5809 5806 5802 5798 5794 5790 5786 5781 5777 5773 5770 5766 5763 5760 5757 5755 5754 5753 5753 5753 5754 5755 5756 5757 5759 5760 5762 5764 5766 5767 5769 5770 5772 5773 5774 5775 5776 5776 5776 5776
5822 5819 5816 5812 5809 5805 5802 5798 5794 5790 5787 5783 5780 5776 5773 5770 5768 5765 5763 5762 5761 5760 5760 5760 5760 5761 5762 5763 5764 5766 5767 5769 5770 5771 5772 5773 5774 5775 5776 5777 5777 5777 5776
5824 5821 5818 5815 5812 5809 5805 5802 5799 5795 5792 5788 5785 5782 5780 5777 5774 5772 5770 5769 5768 5767 5767 5766 5767 5767 5767 5768 5769 5770 5771 5772 5773 5774 5775 5776 5776 5777 5777 5778 5778 5778 5777
5825 5823 5820 5818 5815 5812 5809 5806 5803 5800 5797 5794 5791 5788 5786 5783 5781 5779 5777 5776 5775 5774 5773 5773 5772 5772 5773 5773 5774 5774 5775 5775 5776 5777 5778 5778 5779 5779 5779 5779 5779 5779 5778
5826 5824 5822 5820 5817 5815 5812 5809 5806 5803 5801 5798 5796 5793 5791 5789 5787 5785 5783 5782 5781 5780 5779 5778 5778 5778 5778 5778 5778 5778 5779 5779 5780 5780 5780 5781 5781 5781 5781 5781 5780 5780 5779
5826 5825 5823 5821 5819 5817 5814 5812 5809 5807 5804 5802 5800 5798 5796 5794 5792 5790 5789 5787 5786 5785 5784 5783 5783 5783 5782 5782 5782 5782 5782 5782 5783 5783 5783 5783 5783 5783 5783 5782 5781 5780 5779
5826 5824 5823 5821 5819 5818 5816 5814 5812 5810 5807 5805 5803 5801 5800 5798 5796 5795 5793 5792 5791 5790 5789 5788 5788 5787 5787 5786 5786 5786 5786 5786 5786 5786 5786 5786 5785 5785 5784 5783 5782 5781 5779
5825 5823 5822 5820 5819 5818 5816 5815 5813 5811 5809 5808 5806 5804 5803 5801 5800 5799 5797 5796 5795 5794 5793 5792 5792 5791 5791 5790 5790 5790 5789 5789 5789 5789 5788 5788 5787 5786 5785 5783 5782 5780 5778
5823 5822 5820 5819 5818 5817 5816 5814 5813 5812 5810 5809 5808 5806 5805 5804 5802 5801 5800 5799 5798 5797 5797 5796 5795 5795 5794 5794 5793 5793 5792 5792 5791 5790 5789 5788 5787 5786 5785 5783 5781 5779 5777
5820 5819 5818 5817 5816 5815 5814 5813 5812 5811 5810 5809 5808 5807 5806 5804 5803 5802 5801 5801 5800 5799 5798 5798 5797 5797 5796 5795 5795 5794 5793 5792 5792 5791 5789 5788 5787 5785 5784 5782 5780 5778 5776